Tracking 25734 objects as of 26-May-2022
HD Live streaming from Space Station
objects crossing your sky now

STARLINK-3173

Track STARLINK-3173 now!
10-day predictions
STARLINK-3173 is classified as:


NORAD ID: 51111
Int'l Code: 2022-005H
Perigee: 545.7 km
Apogee: 548.0 km
Inclination: 53.2 °
Period: 95.4 minutes
Semi major axis: 6917 km
RCS: Unknown
Launch date: January 19, 2022
Source: United States (US)
Launch site: AIR FORCE EASTERN TEST RANGE (AFETR)
aabbcc
Your satellite tracking list
Your tracking list is empty




NASA's NSSDC Master Catalog

Two Line Element Set (TLE):
1 51111U 22005H   22146.25001157 -.00047705  00000-0 -29975-2 0  9993
2 51111  53.2127  19.6240 0001650  55.3927 288.1602 15.08861034 21136
Source of the keplerian elements: AFSPC